Back to catalog

DELTA 1 DEB

AlivePO
NORAD 21493·DEBRIS·🇺🇸 United States

Launched Jun 12, 1975 from Vandenberg Space Force Base

Loading…

Next Passes (next 24 hours)

TLE

FreshSource: Space-Track

Epoch: Sep 13, 2026, 16:21 UTC

1 21493U 75052FN  26256.68189475 -.00000685  00000-0 -26060-2 0  9994
2 21493  99.6619 336.7137 0718766 220.7286 303.0093 12.23701141563232

Track DELTA 1 DEB in real time with AllMySat

Download on the App Store